Location: Fountain Hills
(33.6120°N, 111.7170°W)
Time: 23:30:48
(UTC-07:00)

Hamsat - Visible Passes

Search period start: 25 July 2016 00:00
Search period end: 04 August 2016 00:00
Orbit: 586 x 620 km, 97.6° (Epoch: 25 July)

Date Brightness Start Highest point End Pass type
(mag) Time Alt. Az. Time Alt. Az. Time Alt. Az.
25 Jul ? 04:29:48 10° NNE 04:33:38 36° E 04:37:27 10° SSE visible
26 Jul ? 04:41:39 10° NNE 04:45:42 52° E 04:49:45 10° S visible
27 Jul ? 04:53:36 10° NNE 04:57:45 76° ESE 05:01:54 10° S visible
28 Jul ? 05:05:38 10° N 05:09:47 75° WNW 05:13:55 10° SSW visible
30 Jul ? 03:55:47 10° ENE 03:57:54 14° E 04:00:00 10° SE visible
31 Jul ? 04:07:01 10° NE 04:10:01 19° E 04:13:01 10° SE visible
01 Aug ? 04:18:35 10° NE 04:22:07 27° E 04:25:39 10° SSE visible
02 Aug ? 04:30:19 10° NNE 04:34:12 37° E 04:38:05 10° SSE visible
03 Aug ? 04:42:10 10° NNE 04:46:15 54° E 04:50:20 10° S visible
